Regional Weather Roundup
Issued by NWS

Home | Current Version | Previous Version | Graphics & Text | Print | Product List | Glossary On
Versions: 1 2 3 4 5 6 7 8 9 10 11 12 13 14 15 16 17 18 19 20 21 22 23 24 25 26 27 28 29 30 31 32 33 34 35 36 37 38 39 40 41 42 43 44 45 46 47 48 49 50
249
ASUS43 KIND 282259
RWRIN

WEATHER ROUNDUP FOR INDIANA
NATIONAL WEATHER SERVICE INDIANAPOLIS IN
700 PM EDT SUN MAY 28 2017

NOTE: "FAIR" INDICATES FEW OR NO CLOUDS BELOW 12,000 FEET WITH NO
SIGNIFICANT WEATHER AND/OR OBSTRUCTIONS TO VISIBILITY.

* - STATION DOES NOT REPORT WEATHER SUCH AS PRECIPITATION OR FOG.

+ - STATION NOT QUALITY CONTROLLED BY THE NATIONAL WEATHER SERVICE.
    USE DATA WITH CAUTION...ESPECIALLY DEWPOINT AND RELATIVE
    HUMIDITY OBSERVATIONS.

INZ001>003-010>013-019-020-290000-
NORTHWEST INDIANA

CITY           SKY/WX    TMP DP  RH WIND       PRES   REMARKS
GARY /AIRPORT/ MOSUNNY   72  57  60 CALM      29.75S
KNOX *+        MOSUNNY   73  48  40 NW15      29.73S
LA PORTE +     SUNNY     70  59  68 NW12      29.74F
MICHIGAN CITY+ SUNNY     68  57  68 NW5       29.75S
MONTICELLO +   MOSUNNY   77  58  52 NW15G25   29.73R
RENSSELAER +   SUNNY     77  43  29 W15G23    29.75R

$$

LMZ046-743>745-290000-
SOUTHERN LAKE MICHIGAN

STATION/POSITION TIME  TEMP    WIND        PRES    WAVE
                       AIR SEA DIR/SP/G            HT
                 (UTC) (F)     (DEG/KT/KT) (MB)    (FT)
BURNS HARBOR     2230   60     300/  2/  3 1008.1R
MICHIGAN CITY    2230   59     270/  3/  3   N/A
5NW MICH CITY    2250   57 58  280/  4/  4   N/A     1

$$

INZ004-005-014>016-021>024-290000-
NORTH CENTRAL INDIANA

CITY           SKY/WX    TMP DP  RH WIND       PRES   REMARKS
GOSHEN         CLOUDY    74  58  57 NW15      29.70R
PERU/GRISSOM   TSTM      70  66  88 SW16      29.68F
SOUTH BEND     SUNNY     69  58  67 NW16G24   29.73S
WARSAW +       CLOUDY    72  59  64 NW12      29.70F

$$

INZ006>009-017-018-025>027-290000-
NORTHEAST INDIANA

CITY           SKY/WX    TMP DP  RH WIND       PRES   REMARKS
ANGOLA *+      MOSUNNY   72  64  78 SW6       29.69S
AUBURN +       CLOUDY    68  61  77 SW6       29.70F
FORT WAYNE     LGT RAIN  65  62  90 SW8       29.70F
KENDALLVILLE + PTSUNNY   71  66  87 SW7       29.70F

$$

INZ028-029-035-036-043>045-051>053-290000-
WEST CENTRAL INDIANA

CITY           SKY/WX    TMP DP  RH WIND       PRES   REMARKS
CRAWFORDSVL +  CLOUDY   -17 -18  95 SW7       29.78R WCI -33
GREENCASTLE +  CLOUDY    66  64  94 CALM      29.78F
LAFAYETTE      CLOUDY    75  58  55 NW14G25   29.74R
TERRE HAUTE    TSTM      73  64  73 SW14      29.77R

$$

INZ030>032-037>040-046>048-054>057-064-065-290000-
CENTRAL INDIANA

CITY           SKY/WX    TMP DP  RH WIND       PRES   REMARKS
CP ATTERBURY + TSTM      72  63  73 NW9       29.80R
COLUMBUS       CLOUDY    75  61  60 SW10      29.78S
FRANKFORT +    CLOUDY    73  68  85 W8        29.78R
GREENWOOD *+   CLOUDY    62  59  89 CALM      29.80R
INDIANAPOLIS   TSTM      66  61  84 S8        29.77F
-EAGLE CREEK   LGT RAIN  66  64  93 S3        29.76S
KOKOMO +       TSTM      69  65  86 SW17      29.75R
SHELBYVILLE    CLOUDY    69  56  62 NW18G36   29.78R

$$

INZ033-034-041-042-049-050-058-059-290000-
EAST CENTRAL INDIANA

CITY           SKY/WX    TMP DP  RH WIND       PRES   REMARKS
MUNCIE         LGT RAIN  73  63  70 SW8       29.72F
RICHMOND +     PTSUNNY   70  61  73 SW14      29.78F

$$

INZ060-061-067>069-081>083-085>088-290000-
SOUTHWEST INDIANA

CITY           SKY/WX    TMP DP  RH WIND       PRES   REMARKS
EVANSVILLE     PTSUNNY   78  63  59 W13       29.84S
HUNTINGBURG *+ PTSUNNY   73  67  81 SW9       29.83R
WASHINGTON +   MOSUNNY   74  64  71 W9G17     29.80F

$$

INZ062-063-066-070>080-084-089>092-290000-
SOUTH CENTRAL AND SOUTHEAST INDIANA

CITY           SKY/WX    TMP DP  RH WIND       PRES   REMARKS
BLOOMINGTON    MOSUNNY   76  62  62 W12       29.78S
MADISON *+     SUNNY     73  63  68 SW10      29.83S
SEYMOUR +      MOSUNNY   75  64  69 SW12      29.78F

$$





USA.gov is the U.S. government's official web portal to all federal, state and local government web resources and services.